Location: Abbey Hill
(34.0751°N, 84.0688°W)
Time: 12:32:08
(UTC+00:00)

Envisat - Pass Details

Date: 02 October 2021
Orbit: 764 x 766 km, 98.2° (Epoch: 20 October)

Event Time Altitude Azimuth Distance (km) Brightness Sun altitude
Rises 09:40:58 0° 30° (NNE) 3,233 6.8 -23.6°
Reaches altitude 10° 09:43:51 10° 47° (NE) 2,302 6.3 -23.0°
Maximum altitude 09:47:36 21° 94° (E) 1,682 5.6 -22.3°
Drops below altitude 10° 09:51:19 10° 142° (SE) 2,292 5.8 -21.5°
Sets 09:54:10 0° 159° (SSE) 3,213 6.4 -21.0°
